Terug naar catalogus

STARLINK-1184

ActiefCommunicatieVLEO
NORAD 45098·PAYLOAD·🇺🇸 United States

Gelanceerd Jan 29, 2020 vanaf Cape Canaveral Space Force Station

Loading…

Volgende Passages (komende 24 uur)

TLE

VersSource: CelesTrak SupGP

Epoch: Sep 14, 2026, 13:40 UTC

1 45098C 20006BG  26257.56993056  .00022113  00000+0  10646-2 0  2573
2 45098  53.0510 106.8717 0002627  45.7831 101.4389 15.18230403    11

Volg STARLINK-1184 in realtime met AllMySat

Download on the App Store